TimeCST,TemperatureF,Dew PointF,Humidity,Sea Level PressureIn,VisibilityMPH,Wind Direction,Wind SpeedMPH,Gust SpeedMPH,PrecipitationIn,Events,Conditions,WindDirDegrees,DateUTC
12:15 AM,23.0,15.8,74,30.42,10.0,Calm,Calm,-,N/A,,Clear,0,2012-11-16 06:15:00
12:35 AM,21.6,16.0,79,30.42,10.0,Calm,Calm,-,N/A,,Clear,0,2012-11-16 06:35:00
12:55 AM,21.2,15.6,79,30.42,10.0,Calm,Calm,-,N/A,,Clear,0,2012-11-16 06:55:00
1:15 AM,21.6,15.8,78,30.42,10.0,WNW,3.5,-,N/A,,Clear,300,2012-11-16 07:15:00
1:35 AM,20.1,14.9,80,30.41,10.0,Calm,Calm,-,N/A,,Clear,0,2012-11-16 07:35:00
1:55 AM,20.1,16.0,84,30.41,10.0,Calm,Calm,-,N/A,,Clear,0,2012-11-16 07:55:00
2:15 AM,21.0,16.2,81,30.41,10.0,Calm,Calm,-,N/A,,Clear,0,2012-11-16 08:15:00
2:35 AM,20.8,15.6,80,30.41,10.0,Calm,Calm,-,N/A,,Clear,0,2012-11-16 08:35:00
2:55 AM,20.5,15.1,80,30.41,10.0,Calm,Calm,-,N/A,,Clear,0,2012-11-16 08:55:00
3:15 AM,19.6,16.2,87,30.40,10.0,Calm,Calm,-,N/A,,Clear,0,2012-11-16 09:15:00
3:35 AM,19.9,16.2,85,30.40,10.0,Calm,Calm,-,N/A,,Clear,0,2012-11-16 09:35:00
3:55 AM,19.8,15.3,83,30.39,10.0,Calm,Calm,-,N/A,,Clear,0,2012-11-16 09:55:00
4:15 AM,19.0,14.4,82,30.38,10.0,Calm,Calm,-,N/A,,Clear,0,2012-11-16 10:15:00
4:35 AM,18.5,14.5,85,30.37,10.0,Calm,Calm,-,N/A,,Clear,0,2012-11-16 10:35:00
4:55 AM,19.2,15.3,85,30.38,10.0,Calm,Calm,-,N/A,,Clear,0,2012-11-16 10:55:00
5:15 AM,18.3,14.0,83,30.38,10.0,Calm,Calm,-,N/A,,Clear,0,2012-11-16 11:15:00
5:35 AM,18.1,13.6,83,30.38,10.0,Calm,Calm,-,N/A,,Clear,0,2012-11-16 11:35:00
5:55 AM,18.1,14.2,84,30.39,10.0,West,3.5,-,N/A,,Clear,270,2012-11-16 11:55:00
6:15 AM,16.5,13.3,87,30.38,10.0,Calm,Calm,-,N/A,,Clear,0,2012-11-16 12:15:00
6:35 AM,17.8,15.3,90,30.38,10.0,Calm,Calm,-,N/A,,Clear,0,2012-11-16 12:35:00
6:55 AM,18.3,15.8,90,30.37,10.0,Calm,Calm,-,N/A,,Clear,0,2012-11-16 12:55:00
7:15 AM,17.2,14.5,89,30.37,10.0,Calm,Calm,-,N/A,,Clear,0,2012-11-16 13:15:00
7:35 AM,17.4,15.3,91,30.37,10.0,East,5.8,-,N/A,,Clear,100,2012-11-16 13:35:00
7:55 AM,20.1,18.0,91,30.36,10.0,East,5.8,-,N/A,,Clear,90,2012-11-16 13:55:00
8:15 AM,23.2,20.8,91,30.36,10.0,Calm,Calm,-,N/A,,Clear,0,2012-11-16 14:15:00
8:35 AM,28.6,25.2,87,30.37,10.0,Calm,Calm,-,N/A,,Clear,0,2012-11-16 14:35:00
8:55 AM,33.1,28.2,82,30.36,10.0,ESE,3.5,-,N/A,,Clear,120,2012-11-16 14:55:00
9:15 AM,34.9,28.6,78,30.36,10.0,SE,3.5,-,N/A,,Clear,130,2012-11-16 15:15:00
9:35 AM,37.9,30.0,73,30.36,10.0,SSE,4.6,-,N/A,,Clear,150,2012-11-16 15:35:00
9:55 AM,43.0,32.0,65,30.36,10.0,South,10.4,-,N/A,,Clear,170,2012-11-16 15:55:00
10:15 AM,45.0,32.0,60,30.35,10.0,South,11.5,-,N/A,,Clear,170,2012-11-16 16:15:00
10:35 AM,46.6,32.0,57,30.35,10.0,South,11.5,-,N/A,,Clear,190,2012-11-16 16:35:00
10:55 AM,47.5,31.8,55,30.35,10.0,South,13.8,-,N/A,,Clear,170,2012-11-16 16:55:00
11:15 AM,48.6,31.3,51,30.34,10.0,SSE,16.1,20.7,N/A,,Clear,160,2012-11-16 17:15:00
11:35 AM,49.6,31.8,50,30.33,10.0,South,15.0,19.6,N/A,,Clear,190,2012-11-16 17:35:00
11:55 AM,51.1,31.8,48,30.31,10.0,South,15.0,19.6,N/A,,Clear,170,2012-11-16 17:55:00
12:15 PM,52.0,31.6,46,30.31,10.0,South,13.8,18.4,N/A,,Clear,190,2012-11-16 18:15:00
12:35 PM,52.7,30.9,43,30.29,10.0,South,11.5,-,N/A,,Clear,180,2012-11-16 18:35:00
12:55 PM,52.7,30.0,42,30.28,10.0,South,13.8,-,N/A,,Clear,190,2012-11-16 18:55:00
1:15 PM,54.0,29.8,40,30.27,10.0,South,16.1,-,N/A,,Clear,180,2012-11-16 19:15:00
1:35 PM,55.2,30.2,38,30.25,10.0,South,18.4,21.9,N/A,,Clear,170,2012-11-16 19:35:00
1:55 PM,55.9,30.6,38,30.24,10.0,South,16.1,-,N/A,,Clear,170,2012-11-16 19:55:00
2:15 PM,56.8,30.2,36,30.24,10.0,SSW,16.1,-,N/A,,Clear,200,2012-11-16 20:15:00
2:35 PM,57.2,30.6,36,30.23,10.0,South,18.4,23.0,N/A,,Clear,180,2012-11-16 20:35:00
2:55 PM,57.2,30.7,37,30.22,10.0,South,20.7,24.2,N/A,,Clear,170,2012-11-16 20:55:00
3:15 PM,57.6,30.7,36,30.21,10.0,South,19.6,-,N/A,,Clear,170,2012-11-16 21:15:00
3:35 PM,57.6,31.1,37,30.20,10.0,South,19.6,25.3,N/A,,Clear,190,2012-11-16 21:35:00
3:55 PM,57.2,31.5,38,30.20,10.0,SSE,17.3,24.2,N/A,,Clear,160,2012-11-16 21:55:00
4:15 PM,56.5,31.8,39,30.20,10.0,SSE,15.0,-,N/A,,Clear,160,2012-11-16 22:15:00
4:35 PM,55.6,32.0,41,30.20,10.0,SSE,13.8,-,N/A,,Clear,160,2012-11-16 22:35:00
4:55 PM,54.0,32.0,43,30.19,10.0,SSE,12.7,-,N/A,,Clear,160,2012-11-16 22:55:00
5:15 PM,52.7,32.0,45,30.19,10.0,SSE,12.7,-,N/A,,Clear,160,2012-11-16 23:15:00
5:35 PM,51.1,32.0,48,30.19,10.0,SSE,12.7,-,N/A,,Clear,160,2012-11-16 23:35:00
5:55 PM,48.4,32.0,53,30.19,10.0,SSE,10.4,-,N/A,,Clear,160,2012-11-16 23:55:00
6:15 PM,46.4,31.8,57,30.19,10.0,SSE,9.2,-,N/A,,Clear,150,2012-11-17 00:15:00
6:35 PM,45.1,31.6,59,30.19,10.0,SSE,9.2,-,N/A,,Clear,150,2012-11-17 00:35:00
6:55 PM,44.8,31.6,60,30.18,10.0,SSE,10.4,-,N/A,,Clear,160,2012-11-17 00:55:00
7:15 PM,44.4,31.6,61,30.18,10.0,SSE,9.2,-,N/A,,Clear,150,2012-11-17 01:15:00
7:55 PM,43.7,32.0,63,30.18,10.0,SSE,11.5,-,N/A,,Clear,150,2012-11-17 01:55:00
8:15 PM,44.1,32.0,63,30.18,10.0,SSE,11.5,-,N/A,,Clear,160,2012-11-17 02:15:00
8:35 PM,43.9,32.4,64,30.18,10.0,SSE,12.7,-,N/A,,Clear,160,2012-11-17 02:35:00
8:55 PM,44.6,32.9,64,30.18,10.0,SSE,12.7,-,N/A,,Clear,160,2012-11-17 02:55:00
9:15 PM,43.2,33.1,68,30.18,10.0,SSE,10.4,-,N/A,,Clear,160,2012-11-17 03:15:00
9:35 PM,44.2,34.7,69,30.18,10.0,SSE,9.2,-,N/A,,Clear,160,2012-11-17 03:35:00
9:55 PM,45.9,35.4,67,30.18,10.0,South,12.7,-,N/A,,Clear,180,2012-11-17 03:55:00
10:15 PM,45.7,35.6,68,30.18,10.0,South,15.0,-,N/A,,Clear,170,2012-11-17 04:15:00
10:35 PM,45.0,35.6,70,30.17,10.0,South,13.8,-,N/A,,Clear,170,2012-11-17 04:35:00
10:55 PM,43.5,35.1,72,30.17,10.0,South,11.5,-,N/A,,Clear,170,2012-11-17 04:55:00
11:15 PM,43.7,35.2,72,30.17,10.0,South,12.7,-,N/A,,Clear,170,2012-11-17 05:15:00
11:35 PM,43.2,35.2,74,30.17,10.0,South,13.8,-,N/A,,Clear,170,2012-11-17 05:35:00
11:55 PM,43.2,35.1,73,30.17,10.0,South,15.0,-,N/A,,Clear,170,2012-11-17 05:55:00